This is the latest recevied weather packets stored in our database for station/object DO6DD-13. If no packets are shown the sender has not sent any weather packets the latest 10 day(s).
| Time | Temp. | Humidity | Pressure | Rain* | Wind** | Luminosity | Snow |
|---|---|---|---|---|---|---|---|
| 1777549825 | 16.67° C | 31% | 1030.8 hPa | - | - | 780 W/m² | - |
| 1777549225 | 16.67° C | 30% | 1031 hPa | - | - | 784 W/m² | - |
| 1777548624 | 16.67° C | 30% | 1031.1 hPa | - | - | 784 W/m² | - |
| 1777548024 | 16.11° C | 31% | 1031.1 hPa | - | - | 782 W/m² | - |
| 1777547423 | 16.11° C | 31% | 1031.3 hPa | - | - | 780 W/m² | - |
| 1777546823 | 15.56° C | 31% | 1031.4 hPa | - | - | 766 W/m² | - |
| 1777546222 | 15° C | 31% | 1031.5 hPa | - | - | 508 W/m² | - |
| 1777545622 | 15° C | 31% | 1031.5 hPa | - | - | 314 W/m² | - |
| 1777545021 | 14.44° C | 31% | 1031.6 hPa | - | - | 168 W/m² | - |
| 1777544421 | 14.44° C | 32% | 1031.7 hPa | - | - | 156 W/m² | - |
| 1777543820 | 14.44° C | 32% | 1031.7 hPa | - | - | 94 W/m² | - |
| 1777543220 | 13.89° C | 33% | 1031.9 hPa | - | - | 84 W/m² | - |
| 1777542619 | 13.89° C | 33% | 1032 hPa | - | - | 86 W/m² | - |
| 1777542019 | 13.89° C | 33% | 1032.1 hPa | - | - | 82 W/m² | - |
| 1777541418 | 13.33° C | 34% | 1032 hPa | - | - | 82 W/m² | - |
| 1777540818 | 13.33° C | 35% | 1032 hPa | - | - | 90 W/m² | - |
| 1777540227 | 13.33° C | 35% | 1032.1 hPa | - | - | 84 W/m² | - |
| 1777539617 | 12.78° C | 36% | 1032.2 hPa | - | - | 76 W/m² | - |
| 1777539016 | 12.78° C | 36% | 1032.3 hPa | - | - | 76 W/m² | - |
| 1777538426 | 12.78° C | 37% | 1032.3 hPa | - | - | 98 W/m² | - |
| 1777537825 | 12.22° C | 38% | 1032.3 hPa | - | - | 70 W/m² | - |
| 1777537225 | 12.22° C | 40% | 1032.3 hPa | - | - | 68 W/m² | - |
| 1777536624 | 11.67° C | 41% | 1032.4 hPa | - | - | 128 W/m² | - |
| 1777536024 | 11.11° C | 41% | 1032.5 hPa | - | - | 184 W/m² | - |
| 1777535423 | 11.11° C | 41% | 1032.5 hPa | - | - | 122 W/m² | - |
* Rain since midnight (hover to see other rain measurements)
** Current wind speed in m/s (hover to see current wind gust speed)